Location: Orange Harbor Mobile Home Park
(26.6923°N, 81.7937°W)
Time: 00:09:36
(UTC+00:00)

Daily predictions for brighter satellites

Satellite Brightness Start Highest point End
(mag) Time Altitude Azimuth Time Altitude Azimuth Time Altitude Azimuth
Cosmos 1680 Rocket 3.7 00:00:59 10° N 00:06:02 47° ENE 00:11:04 10° SSE
MOS 1 Rocket 3.4 00:03:42 10° NNE 00:07:48 40° E 00:11:49 10° S
Cosmos 1975 Rocket 4.0 00:04:59 10° NNE 00:08:37 26° E 00:12:13 10° SE
Cosmos 1674 Rocket 4.4 00:04:24 10° NNW 00:08:46 56° W 00:13:07 10° S
USA 234 3.4 00:04:03 10° NE 00:10:28 57° SE 00:16:52 10° SSW
Sich 1 Rocket 3.8 00:09:15 10° SSE 00:13:31 47° E 00:17:49 10° NNE
ISS -1.2 00:11:44 10° W 00:14:23 21° NW 00:17:04 10° N
H-2A R/B 2.5 00:13:03 10° SE 00:17:29 35° ENE 00:21:59 10° N
Iridium 4 Rocket 3.8 00:16:37 10° S 00:21:11 66° W 00:26:14 10° N
ARGOS 3.9 00:16:44 10° SE 00:21:19 30° ENE 00:25:53 10° NNE
Cosmos 1174 4.2 00:18:53 10° S 00:22:54 54° ESE 00:28:01 10° NNE
Cosmos 158 Rocket 3.9 00:19:40 10° NNW 00:24:53 86° E 00:29:55 10° SSE
Fermi 3.7 00:21:24 10° W 00:25:28 73° S 00:27:46 25° ESE
GPS 2-04 Rocket1 3.0 00:25:10 10° WNW 00:29:19 64° SSW 00:31:48 22° SE
Chunghua 1 4.4 00:27:34 10° WNW 00:31:15 72° NNE 00:32:48 32° E
Cosmos 1437 2.6 00:28:38 10° N 00:31:34 51° E 00:32:46 29° SE
Okean 2 Rocket 3.2 00:28:57 10° SSE 00:33:17 50° E 00:37:38 10° NNE
Cosmos 1844 4.3 00:28:24 10° SSE 00:33:29 34° ESE 00:38:32 10° NE
Milstar 3 Cent rocket 2.5 00:26:29 10° WSW 00:34:24 60° SSE 00:37:15 26° E
CZ-2C R/B 3.1 00:30:01 10° NNE 00:35:16 41° E 00:40:31 10° SSE
Okean-O 4.0 00:32:52 10° S 00:37:03 41° W 00:41:14 10° NNW
ATLAS 2AS CENTAUR R/B 3.8 00:31:11 10° SSE 00:37:16 26° ESE 00:40:32 20° ENE
Cosmos 2263 Rocket 4.5 00:33:10 10° WSW 00:37:44 26° WNW 00:42:19 10° N
SL-16 R/B 4.3 00:33:11 10° NW 00:37:53 27° WSW 00:42:34 10° SSW
HJ-1C 3.2 00:36:39 19° SSE 00:38:51 70° ENE 00:42:07 10° N
SJ-11-01 4.2 00:34:25 10° SSE 00:39:07 71° ENE 00:43:48 10° N
Delta 168 3.9 00:36:29 10° W 00:40:07 30° SSW 00:41:24 23° SSE
CZ-2C R/B 3.0 00:37:00 10° SSE 00:42:01 86° WSW 00:47:22 10° NNW
Cosmos 1900 4.4 00:37:28 10° NNW 00:42:39 87° WSW 00:46:57 15° SSE
GOES 2 Rocket 2.8 00:39:33 10° WSW 00:43:42 76° SSE 00:45:16 38° E
Cosmos 1844 Rocket 2.6 00:39:18 10° S 00:44:43 57° ESE 00:50:09 10° NNE
Cosmos 1300 Rocket 3.4 00:41:01 10° S 00:45:20 70° E 00:49:44 10° N
Cosmos 2285 Rocket 4.4 00:43:04 10° SSE 00:48:47 38° E 00:54:31 10° NE
Cosmos 1513 Rocket 4.4 00:43:56 10° S 00:50:16 87° E 00:56:33 10° N
Ariane Rocket 3.7 00:50:37 32° ENE 00:50:37 32° ENE 00:55:00 10° N
YAOGAN 1 3.9 00:46:57 10° S 00:51:00 39° W 00:55:03 10° NNW
SEDSat Delta rocket 3.5 00:47:38 10° WNW 00:52:45 59° SSW 00:54:18 38° SE
Exosat Rocket 3.9 00:50:27 10° S 00:57:12 58° ESE 01:02:24 10° NNE
Cosmos 1464 Rocket 4.0 00:52:32 10° S 00:58:39 82° W 01:04:48 10° N
Meteor 1-15 Rocket 4.3 00:54:38 10° SSE 00:59:57 48° E 01:05:21 10° NNE
Cosmos 2298 Rocket 4.1 00:54:40 10° SSW 00:59:59 80° WNW 01:05:20 10° NNE
Meteor 1-12 Rocket 4.5 00:54:47 10° SSW 01:00:44 75° W 01:06:38 10° N
Cosmos 1943 3.1 00:58:11 10° NNW 01:03:51 87° ENE 01:06:43 31° SSE
CZ-4 R/B 4.3 01:05:52 10° SW 01:08:46 18° W 01:11:42 10° NW
Cosmos 2151 Rocket 3.8 01:10:09 10° SSW 01:14:32 70° W 01:18:59 10° N
Cosmos 1867 4.3 01:17:22 10° N 01:21:22 38° NNE 01:21:22 38° NNE
CZ-2C R/B 3.3 01:20:26 10° NW 01:22:04 17° NNW 01:22:04 17° NNW
Cosmos 1603 4.5 01:18:06 10° NNW 01:23:29 49° WSW 01:26:55 21° S
Cosmos 1025 Rocket 4.2 01:21:16 10° N 01:23:50 35° N 01:23:50 35° N
Cosmos 1125 Rocket 4.2 01:35:01 10° SSW 01:40:10 53° WNW 01:45:22 10° N
ATLAS 2AS CENTAUR R/B 3.5 02:20:11 10° SW 02:27:46 54° WNW 02:35:33 10° NNE
CENTAUR R/B 4.3 02:42:46 10° NNW 02:47:17 35° N 02:47:17 35° N
H-2A R/B 3.7 08:55:48 10° SE 08:59:36 32° ENE 09:03:30 10° N
SJ 16-02 4.5 09:00:53 10° NE 09:03:08 14° ENE 09:05:21 10° E
Cosmos 2360 Rocket 4.5 09:06:03 10° SSE 09:10:13 21° E 09:14:24 10° NE
BREEZE-M DEB (TANK) 4.5 09:13:55 42° WNW 09:15:23 46° NW 09:20:00 10° NNE
SL-4 R/B 2.7 09:19:51 57° NNE 09:19:51 57° NNE 09:23:40 10° NE
Cosmos 1980 Rocket 3.9 09:22:31 19° NNW 09:22:31 19° NNW 09:24:38 10° N
CZ-2C R/B 2.5 09:16:32 10° NNE 09:21:42 84° ESE 09:23:03 51° S
Cosmos 1339 Rocket 4.4 09:22:54 59° WSW 09:23:31 62° W 09:29:43 10° N
Cosmos 468 Rocket 3.9 09:24:08 58° SSW 09:25:14 89° E 09:30:33 10° NNE
Landsat 5 3.7 09:20:59 10° SSE 09:25:27 75° ENE 09:29:58 10° N
Cosmos 2322 Rocket 2.5 09:22:33 29° S 09:25:28 67° ESE 09:31:06 10° NNE
Cosmos 1500 3.9 09:22:14 10° N 09:25:59 51° E 09:29:40 10° SSE
PAYLOAD A 3.8 09:22:39 10° N 09:26:52 65° NW 09:26:52 65° NW
Meteor 1-10 Rocket 4.1 09:25:24 41° SSW 09:27:32 82° W 09:33:21 10° N
SL-16 R/B 2.0 09:31:25 44° SSW 09:33:17 81° WNW 09:38:58 10° NNE
Cosmos 2263 Rocket 3.6 09:33:29 10° N 09:38:44 38° ENE 09:43:57 10° SE
Meteor 2-9 4.5 09:33:21 10° N 09:38:49 88° W 09:44:11 10° S
Chandra Rocket (1) 3.7 09:31:38 25° W 09:41:06 81° SSW 09:46:10 10° ESE
FUSE 4.4 09:40:52 41° SW 09:41:33 43° SSW 09:46:38 10° SE
SL-19 R/B 4.3 09:37:26 10° NNE 09:41:55 88° ESE 09:43:23 39° SSW
Meteor 1-14 Rocket 4.3 09:39:00 10° NNW 09:44:20 49° W 09:49:36 10° SSW
CSL-04 DEB 4.4 09:42:37 10° S 09:46:45 59° WSW 09:51:00 10° NNW
Cosmos 1707 Rocket 3.3 09:49:39 20° SSW 09:52:36 73° W 09:56:55 10° N
deb Chang Zheng 4 3.4 09:48:36 10° NNE 09:52:53 87° WNW 09:57:05 10° SSW
Cosmos 1238 Rocket 4.3 09:47:37 10° NNW 09:53:31 39° W 09:58:46 10° SSW
GPS 2-15 Rocket1 4.0 09:57:49 28° SW 09:59:19 35° S 10:03:32 10° ESE
IRIDIUM 104 4.3 09:54:19 10° N 09:59:25 59° W 10:04:32 10° SSW
Cosmos 2208 Rocket 4.5 09:55:04 10° S 10:00:16 62° ESE 10:05:26 10° NNE
Meteor 1-5 Rocket 4.0 09:56:25 10° NNW 10:01:43 68° W 10:07:08 10° S
Yuri Rocket 4.2 10:01:36 21° SW 10:04:18 43° SSE 10:09:50 10° E
Meteor 1-4 Rocket 4.3 10:09:30 16° NW 10:09:30 16° NW 10:10:38 10° NNW
Cosmos 2333 Rocket 4.4 10:05:07 10° SSE 10:09:56 28° ESE 10:14:45 10° NE
GPS 2-18 Rocket1 4.1 10:10:36 23° SW 10:12:18 34° S 10:15:57 10° ESE
USA 32 3.9 10:07:47 10° N 10:13:02 76° W 10:18:15 10° S
Skynet4D Del rocket 3.7 10:09:50 22° W 10:13:35 89° N 10:19:58 10° E
ADEOS 3.7 10:11:10 10° N 10:16:11 49° WNW 10:21:11 10° SSW
ADEOS Rocket 3.3 10:09:08 10° S 10:16:25 75° WSW 10:23:00 10° NNW
USA 234 3.2 10:11:57 10° SE 10:18:28 82° SW 10:25:02 10° NW
Cosmos 2173 Rocket 4.4 10:12:14 10° N 10:18:33 71° E 10:24:54 10° SSE
Cosmos 1536 2.9 10:15:34 10° N 10:19:38 80° E 10:23:41 10° S
Cosmos 1733 Rocket 3.7 10:17:14 10° N 10:21:29 58° E 10:25:43 10° SSE
DELTA 4 R/B 3.3 10:09:17 15° W 10:21:30 68° SSW 10:25:24 10° ESE
Cosmos 1484 Rocket 3.1 10:18:55 10° N 10:22:45 46° WNW 10:26:35 10° SSW
Cosmos 1814 Rocket 3.9 10:21:18 10° SSW 10:26:25 70° WNW 10:31:37 10° N
Cosmos 1862 Rocket 3.5 10:22:05 10° SSW 10:26:26 63° W 10:30:47 10° N
Cosmos 1869 Rocket 4.4 10:22:48 10° NNW 10:26:28 28° W 10:30:08 10° SSW
ALOS 2.4 10:22:01 10° N 10:26:32 50° WNW 10:31:01 10° SSW
ERS-2 3.0 10:23:32 10° SSW 10:26:40 27° W 10:29:50 10° NW
Cosmos 1437 Rocket 2.9 10:24:21 10° S 10:28:05 73° E 10:31:52 10° NNE
Meteor 1-11 Rocket 3.7 10:23:09 10° NNW 10:28:46 61° W 10:34:16 10° S
Cosmos 1937 Rocket 4.2 10:25:15 10° N 10:30:18 57° ENE 10:35:19 10° SSE
Cosmos 841 Rocket 3.8 10:26:40 10° SW 10:31:37 45° WNW 10:36:38 10° N
Meteor 1-27 Rocket 4.4 10:26:28 10° SW 10:31:45 34° W 10:37:05 10° NNW
Meteor 1-31 Rocket 3.2 10:29:57 10° N 10:33:33 40° WNW 10:37:09 10° SW
H-2A R/B 3.7 10:33:19 10° SW 10:35:34 14° W 10:37:52 10° WNW
SJ 16-02 2.0 10:37:46 10° NW 10:41:43 33° W 10:45:39 10° SSW
Meteor PRIRODA 3.5 10:39:26 10° N 10:43:03 71° WNW 10:46:39 10° SSW
Cosmos 2016 Rocket 4.1 10:42:34 10° N 10:48:41 83° E 10:54:46 10° S
Cosmos 2360 Rocket 2.8 10:48:45 10° SW 10:53:53 35° WNW 10:59:02 10° N
Meteor 2-20 Rocket 4.5 10:48:23 10° SSW 10:54:28 63° W 11:00:33 10° N
PSLV R/B 4.1 10:50:58 10° NNE 10:54:44 73° ESE 10:58:36 10° S
Cosmos 1515 3.6 10:51:35 10° S 10:55:22 75° W 10:59:10 10° N
